SKCUBE

Last updated on Mon Nov 13 2023 00:03:40 GMT+0000 (Coordinated Universal Time)

1 42789U 17036AA 23316.24878152 .15089340 24242-5 33245-3 0 9998 2 42789 97.0967 358.2701 0009105 256.4814 103.5475 16.46095853356311

Satellite not in orbit